| time (UTC) | temp F | wind direction | speed MPH | gust MPH | rain 1hr in | rain 24hr in | rain mn in | humidity % | barometer mb |
| 20260506175000 | 76 | 288 | 2.0 | 8.0 | 0.00 | 0.00 | 0.00 | 24 | 1017.0 |
| 20260506173959 | 76 | 360 | 2.0 | 5.0 | 0.00 | 0.00 | 0.00 | 23 | 1017.0 |
| 20260506173000 | 75 | 107 | 2.0 | 8.0 | 0.00 | 0.00 | 0.00 | 24 | 1017.0 |
| 20260506171959 | 74 | 18 | 1.0 | 5.0 | 0.00 | 0.00 | 0.00 | 25 | 1017.0 |
| 20260506170959 | 74 | 47 | 1.0 | 6.0 | 0.00 | 0.00 | 0.00 | 26 | 1017.0 |
| 20260506165959 | 73 | 11 | 2.0 | 5.0 | 0.00 | 0.00 | 0.00 | 25 | 1016.9 |
| 20260506164958 | 73 | 306 | 3.0 | 6.0 | 0.00 | 0.00 | 0.00 | 26 | 1016.8 |
| 20260506163958 | 73 | 261 | 1.0 | 3.0 | 0.00 | 0.00 | 0.00 | 26 | 1016.7 |
| 20260506162958 | 72 | 42 | 4.0 | 5.0 | 0.00 | 0.00 | 0.00 | 26 | 1016.7 |
| 20260506161959 | 72 | 221 | 2.0 | 7.0 | 0.00 | 0.00 | 0.00 | 27 | 1016.7 |
| 20260506160959 | 71 | 225 | 1.0 | 6.0 | 0.00 | 0.00 | 0.00 | 27 | 1016.7 |
| 20260506160001 | 70 | 115 | 3.0 | 5.0 | 0.00 | 0.00 | 0.00 | 27 | 1016.6 |
| 20260506154958 | 69 | 221 | 3.0 | 7.0 | 0.00 | 0.00 | 0.00 | 29 | 1016.6 |
| 20260506153958 | 68 | 182 | 3.0 | 9.0 | 0.00 | 0.00 | 0.00 | 30 | 1016.4 |
| 20260506152959 | 68 | 207 | 4.0 | 9.0 | 0.00 | 0.00 | 0.00 | 32 | 1016.4 |
| 20260506151958 | 67 | 167 | 4.0 | 8.0 | 0.00 | 0.00 | 0.00 | 34 | 1016.4 |
| 20260506150959 | 66 | 190 | 5.0 | 11.0 | 0.00 | 0.00 | 0.00 | 34 | 1016.3 |
| 20260506150002 | 65 | 206 | 5.0 | 9.0 | 0.00 | 0.00 | 0.00 | 35 | 1016.3 |
| 20260506144958 | 65 | 206 | 4.0 | 7.0 | 0.00 | 0.00 | 0.00 | 35 | 1016.1 |
| 20260506143958 | 64 | 174 | 4.0 | 9.0 | 0.00 | 0.00 | 0.00 | 36 | 1016.1 |
| 20260506142959 | 64 | 237 | 5.0 | 10.0 | 0.00 | 0.00 | 0.00 | 37 | 1016.0 |
| 20260506142000 | 63 | 148 | 4.0 | 8.0 | 0.00 | 0.00 | 0.00 | 37 | 1015.9 |
| 20260506140958 | 62 | 146 | 3.0 | 8.0 | 0.00 | 0.00 | 0.00 | 38 | 1015.7 |
| 20260506135958 | 62 | 208 | 4.0 | 10.0 | 0.00 | 0.00 | 0.00 | 39 | 1015.5 |
| 20260506134958 | 61 | 132 | 4.0 | 6.0 | 0.00 | 0.00 | 0.00 | 39 | 1015.5 |
| 20260506133958 | 60 | 103 | 3.0 | 7.0 | 0.00 | 0.00 | 0.00 | 40 | 1015.3 |
| 20260506132958 | 59 | 141 | 5.0 | 8.0 | 0.00 | 0.00 | 0.00 | 41 | 1015.2 |
| 20260506131957 | 59 | 198 | 4.0 | 6.0 | 0.00 | 0.00 | 0.00 | 41 | 1015.0 |
| 20260506130957 | 59 | 207 | 3.0 | 8.0 | 0.00 | 0.00 | 0.00 | 41 | 1014.9 |
| 20260506130000 | 59 | 177 | 3.0 | 7.0 | 0.00 | 0.00 | 0.00 | 40 | 1014.8 |
| 20260506124958 | 59 | 148 | 4.0 | 6.0 | 0.00 | 0.00 | 0.00 | 40 | 1014.7 |
| 20260506123957 | 59 | 184 | 3.0 | 7.0 | 0.00 | 0.00 | 0.00 | 40 | 1014.5 |
| 20260506122957 | 59 | 159 | 4.0 | 7.0 | 0.00 | 0.00 | 0.00 | 40 | 1014.4 |
| 20260506121959 | 59 | 120 | 4.0 | 6.0 | 0.00 | 0.00 | 0.00 | 40 | 1014.4 |
| 20260506120958 | 60 | 133 | 3.0 | 7.0 | 0.00 | 0.00 | 0.00 | 40 | 1014.4 |
| 20260506115956 | 60 | 165 | 4.0 | 7.0 | 0.00 | 0.00 | 0.00 | 40 | 1014.4 |
| 20260506114959 | 60 | 146 | 3.0 | 7.0 | 0.00 | 0.00 | 0.00 | 39 | 1014.3 |
| 20260506113958 | 60 | 119 | 4.0 | 8.0 | 0.00 | 0.00 | 0.00 | 39 | 1014.3 |
| 20260506112959 | 60 | 144 | 4.0 | 6.0 | 0.00 | 0.00 | 0.00 | 38 | 1014.2 |
| 20260506111957 | 61 | 165 | 3.0 | 6.0 | 0.00 | 0.00 | 0.00 | 38 | 1014.1 |
| 20260506110956 | 61 | 141 | 6.0 | 9.0 | 0.00 | 0.00 | 0.00 | 38 | 1014.0 |
| 20260506105959 | 61 | 211 | 4.0 | 8.0 | 0.00 | 0.00 | 0.00 | 38 | 1013.9 |
| 20260506104958 | 61 | 193 | 6.0 | 11.0 | 0.00 | 0.00 | 0.00 | 38 | 1013.8 |
| 20260506104000 | 61 | 190 | 5.0 | 9.0 | 0.00 | 0.00 | 0.00 | 38 | 1013.8 |
| 20260506102958 | 61 | 179 | 4.0 | 8.0 | 0.00 | 0.00 | 0.00 | 37 | 1013.7 |
| 20260506101957 | 61 | 192 | 3.0 | 9.0 | 0.00 | 0.00 | 0.00 | 37 | 1013.5 |
| 20260506101000 | 61 | 101 | 6.0 | 10.0 | 0.00 | 0.00 | 0.00 | 37 | 1013.4 |
| 20260506095957 | 61 | 147 | 7.0 | 11.0 | 0.00 | 0.00 | 0.00 | 37 | 1013.3 |
| 20260506094957 | 62 | 119 | 6.0 | 9.0 | 0.00 | 0.00 | 0.00 | 37 | 1013.3 |
| 20260506093956 | 62 | 153 | 6.0 | 10.0 | 0.00 | 0.00 | 0.00 | 36 | 1013.2 |
| 20260506092956 | 62 | 214 | 5.0 | 10.0 | 0.00 | 0.00 | 0.00 | 36 | 1013.2 |
| 20260506091957 | 62 | 175 | 5.0 | 10.0 | 0.00 | 0.00 | 0.00 | 36 | 1013.1 |
| 20260506090957 | 62 | 178 | 6.0 | 12.0 | 0.00 | 0.00 | 0.00 | 36 | 1013.1 |
| 20260506090001 | 62 | 155 | 4.0 | 11.0 | 0.00 | 0.00 | 0.00 | 35 | 1013.0 |
| 20260506084957 | 63 | 209 | 5.0 | 10.0 | 0.00 | 0.00 | 0.00 | 35 | 1012.9 |
| 20260506083957 | 63 | 225 | 4.0 | 8.0 | 0.00 | 0.00 | 0.00 | 34 | 1012.8 |
| 20260506082957 | 63 | 165 | 4.0 | 9.0 | 0.00 | 0.00 | 0.00 | 34 | 1012.8 |
| 20260506081957 | 63 | 197 | 4.0 | 9.0 | 0.00 | 0.00 | 0.00 | 33 | 1012.8 |
| 20260506080957 | 63 | 129 | 5.0 | 9.0 | 0.00 | 0.00 | 0.00 | 33 | 1012.9 |
| 20260506073000 | 64 | 187 | 6.0 | 10.0 | 0.00 | 0.00 | 0.00 | 31 | 1013.0 |
| 20260506072001 | 64 | 136 | 5.0 | 11.0 | 0.00 | 0.00 | 0.00 | 28 | 1013.0 |
| 20260506071002 | 64 | 128 | 5.0 | 9.0 | 0.00 | 0.00 | 0.00 | 28 | 1013.0 |
| 20260506062000 | 64 | 155 | 4.0 | 5.0 | 0.00 | 0.00 | 0.00 | 27 | 1012.5 |
| 20260506061000 | 64 | 142 | 3.0 | 5.0 | 0.00 | 0.00 | 0.00 | 28 | 1012.4 |
| 20260506050959 | 65 | 138 | 3.0 | 5.0 | 0.00 | 0.00 | 0.00 | 29 | 1011.9 |
| 20260506045001 | 66 | 165 | 3.0 | 9.0 | 0.00 | 0.00 | 0.00 | 28 | 1011.7 |
| 20260506044000 | 66 | 130 | 4.0 | 7.0 | 0.00 | 0.00 | 0.00 | 28 | 1011.6 |
| 20260506043002 | 67 | 140 | 4.0 | 7.0 | 0.00 | 0.00 | 0.00 | 27 | 1011.6 |
| 20260506042001 | 67 | 165 | 3.0 | 7.0 | 0.00 | 0.00 | 0.00 | 27 | 1011.3 |
| 20260506041000 | 67 | 165 | 5.0 | 7.0 | 0.00 | 0.00 | 0.00 | 27 | 1011.3 |
| 20260506040000 | 67 | 135 | 4.0 | 7.0 | 0.00 | 0.00 | 0.00 | 26 | 1011.1 |
| 20260506034959 | 68 | 196 | 3.0 | 8.0 | 0.00 | 0.00 | 0.00 | 26 | 1011.0 |
| 20260506034000 | 68 | 138 | 4.0 | 9.0 | 0.00 | 0.00 | 0.00 | 26 | 1010.8 |
| 20260506032959 | 68 | 176 | 3.0 | 7.0 | 0.00 | 0.00 | 0.00 | 25 | 1010.6 |
| 20260506031959 | 69 | 216 | 4.0 | 10.0 | 0.00 | 0.00 | 0.00 | 25 | 1010.5 |
| 20260506031000 | 69 | 238 | 5.0 | 10.0 | 0.00 | 0.00 | 0.00 | 25 | 1010.3 |
| 20260506030000 | 69 | 219 | 4.0 | 9.0 | 0.00 | 0.00 | 0.00 | 25 | 1010.2 |
| 20260506025001 | 70 | 242 | 4.0 | 11.0 | 0.00 | 0.00 | 0.00 | 24 | 1009.9 |
| 20260506023958 | 70 | 165 | 5.0 | 10.0 | 0.00 | 0.00 | 0.00 | 24 | 1009.8 |
| 20260506022959 | 71 | 193 | 3.0 | 10.0 | 0.00 | 0.00 | 0.00 | 24 | 1009.7 |
| 20260506022000 | 71 | 250 | 3.0 | 12.0 | 0.00 | 0.00 | 0.00 | 23 | 1009.7 |
| 20260506021001 | 72 | 216 | 5.0 | 11.0 | 0.00 | 0.00 | 0.00 | 23 | 1009.5 |
| 20260506020000 | 72 | 212 | 3.0 | 8.0 | 0.00 | 0.00 | 0.00 | 22 | 1009.4 |
| 20260506014959 | 72 | 296 | 4.0 | 9.0 | 0.00 | 0.00 | 0.00 | 22 | 1009.4 |
| 20260506013959 | 73 | 237 | 4.0 | 7.0 | 0.00 | 0.00 | 0.00 | 21 | 1009.3 |
| 20260506012958 | 74 | 226 | 4.0 | 9.0 | 0.00 | 0.00 | 0.00 | 20 | 1009.2 |
| 20260506012000 | 75 | 221 | 5.0 | 10.0 | 0.00 | 0.00 | 0.00 | 19 | 1009.2 |
| 20260506010958 | 76 | 220 | 5.0 | 11.0 | 0.00 | 0.00 | 0.00 | 18 | 1009.1 |
| 20260506005959 | 76 | 139 | 1.0 | 4.0 | 0.00 | 0.00 | 0.00 | 16 | 1009.1 |
| 20260506004958 | 76 | 160 | 3.0 | 5.0 | 0.00 | 0.00 | 0.00 | 16 | 1009.1 |
| 20260506003958 | 75 | 79 | 1.0 | 5.0 | 0.00 | 0.00 | 0.00 | 16 | 1009.0 |
| 20260506002958 | 77 | 340 | 3.0 | 8.0 | 0.00 | 0.00 | 0.00 | 16 | 1008.9 |
| 20260506001959 | 78 | 318 | 1.0 | 4.0 | 0.00 | 0.00 | 0.00 | 15 | 1008.9 |
| 20260506000959 | 78 | 211 | 0.0 | 4.0 | 0.00 | 0.00 | 0.00 | 15 | 1008.9 |
| 20260506000003 | 78 | 179 | 1.0 | 8.0 | 0.00 | 0.00 | 0.00 | 16 | 1008.8 |
| 20260505234959 | 77 | 203 | 6.0 | 9.0 | 0.00 | 0.00 | 0.00 | 16 | 1008.8 |
| 20260505234000 | 76 | 345 | 2.0 | 4.0 | 0.00 | 0.00 | 0.00 | 16 | 1008.7 |
| 20260505232959 | 77 | 234 | 2.0 | 6.0 | 0.00 | 0.00 | 0.00 | 17 | 1008.8 |
| 20260505231959 | 78 | 132 | 4.0 | 11.0 | 0.00 | 0.00 | 0.00 | 17 | 1008.9 |
| 20260505231000 | 77 | 188 | 2.0 | 5.0 | 0.00 | 0.00 | 0.00 | 17 | 1009.0 |
| 20260505230001 | 77 | 191 | 2.0 | 10.0 | 0.00 | 0.00 | 0.00 | 18 | 1009.1 |
| 20260505224958 | 77 | 215 | 5.0 | 9.0 | 0.00 | 0.00 | 0.00 | 18 | 1009.3 |
| 20260505224000 | 76 | 211 | 3.0 | 5.0 | 0.00 | 0.00 | 0.00 | 19 | 1009.4 |
| 20260505222959 | 77 | 227 | 4.0 | 7.0 | 0.00 | 0.00 | 0.00 | 19 | 1009.5 |
| 20260505222001 | 77 | 150 | 5.0 | 10.0 | 0.00 | 0.00 | 0.00 | 18 | 1009.5 |
| 20260505221000 | 77 | 227 | 2.0 | 8.0 | 0.00 | 0.00 | 0.00 | 19 | 1009.6 |
| 20260505220001 | 77 | 163 | 5.0 | 11.0 | 0.00 | 0.00 | 0.00 | 20 | 1009.7 |
| 20260505214959 | 75 | 15 | 3.0 | 9.0 | 0.00 | 0.00 | 0.00 | 20 | 1009.8 |
| 20260505213959 | 77 | 204 | 3.0 | 11.0 | 0.00 | 0.00 | 0.00 | 19 | 1009.9 |
| 20260505213000 | 77 | 144 | 3.0 | 8.0 | 0.00 | 0.00 | 0.00 | 20 | 1010.1 |
| 20260505211959 | 77 | 227 | 4.0 | 8.0 | 0.00 | 0.00 | 0.00 | 20 | 1010.1 |
| 20260505210959 | 78 | 150 | 3.0 | 13.0 | 0.00 | 0.00 | 0.00 | 19 | 1010.3 |
| 20260505210003 | 78 | 150 | 3.0 | 15.0 | 0.00 | 0.00 | 0.00 | 18 | 1010.3 |
| 20260505205001 | 77 | 5 | 5.0 | 10.0 | 0.00 | 0.00 | 0.00 | 20 | 1010.3 |
| 20260505204001 | 76 | 159 | 4.0 | 12.0 | 0.00 | 0.00 | 0.00 | 21 | 1010.4 |
| 20260505203001 | 75 | 193 | 3.0 | 8.0 | 0.00 | 0.00 | 0.00 | 20 | 1010.3 |
| 20260505202002 | 75 | 216 | 3.0 | 6.0 | 0.00 | 0.00 | 0.00 | 21 | 1010.4 |
| 20260505201000 | 75 | 164 | 6.0 | 18.0 | 0.00 | 0.00 | 0.00 | 21 | 1010.5 |
| 20260505200003 | 74 | 262 | 2.0 | 10.0 | 0.00 | 0.00 | 0.00 | 21 | 1010.6 |
| 20260505194959 | 73 | 209 | 4.0 | 8.0 | 0.00 | 0.00 | 0.00 | 23 | 1010.7 |
| 20260505194000 | 72 | 245 | 4.0 | 12.0 | 0.00 | 0.00 | 0.00 | 23 | 1010.9 |
| 20260505193000 | 72 | 196 | 2.0 | 11.0 | 0.00 | 0.00 | 0.00 | 25 | 1010.9 |
| 20260505192000 | 72 | 157 | 3.0 | 8.0 | 0.00 | 0.00 | 0.00 | 24 | 1011.0 |
| 20260505191000 | 71 | 227 | 2.0 | 10.0 | 0.00 | 0.00 | 0.00 | 23 | 1011.0 |
| 20260505190003 | 71 | 117 | 5.0 | 10.0 | 0.00 | 0.00 | 0.00 | 25 | 1011.0 |
| 20260505184957 | 71 | 140 | 4.0 | 10.0 | 0.00 | 0.00 | 0.00 | 25 | 1011.1 |
| 20260505184000 | 70 | 159 | 4.0 | 20.0 | 0.00 | 0.00 | 0.00 | 26 | 1011.2 |
| 20260505182958 | 70 | 195 | 5.0 | 8.0 | 0.00 | 0.00 | 0.00 | 26 | 1011.2 |
| 20260505181958 | 69 | 169 | 2.0 | 9.0 | 0.00 | 0.00 | 0.00 | 26 | 1011.2 |
| 20260505180958 | 70 | 234 | 5.0 | 14.0 | 0.00 | 0.00 | 0.00 | 26 | 1011.2 |
| 20260505175957 | 70 | 150 | 5.0 | 12.0 | 0.00 | 0.00 | 0.00 | 26 | 1011.2 |